Regional Weather Roundup
Issued by NWS

Home | Current Version | Previous Version | Graphics & Text | Print | Product List | Glossary On
Versions: 1 2 3 4 5 6 7 8 9 10 11 12 13 14 15 16 17 18 19 20 21 22 23 24 25 26 27 28 29 30 31 32 33 34 35 36 37 38 39 40 41 42 43 44 45 46 47 48 49 50
000
ASUS44 KMEG 200410
RWRTN
TENNESSEE HOURLY STATE WEATHER ROUNDUP
NATIONAL WEATHER SERVICE MEMPHIS TN
1100 PM CDT SAT MAY 19 2018

TNZ002-004-019-021-049-052-054-088>092-200500-
WEST TENNESSEE

CITY           SKY/WX    TMP DP  RH WIND       PRES   REMARKS
MEMPHIS INTL   FAIR      73  66  78 E6        30.03R
NWS MEMPHIS      N/A     69 N/A N/A MISG        N/A
JACKSON        FAIR      68  68 100 S7        30.04F
DYERSBURG      FAIR      68  66  93 S3        30.04R
SOMERVILLE     CLEAR     68  66  94 N3        30.04R
COVINGTON      CLEAR     68  66  94 S5        30.03F
BOLIVAR        PTCLDY    68  66  94 CALM      30.06R
PARIS          CLEAR     64  64 100 SW8       30.02R
HUNTINGDON     PTCLDY    66  66 100 SW5       30.03R
LEXINGTON      CLEAR     66  64  94 CALM      30.06R
SELMER         CLEAR     68  66  94 N6        30.07R
SAVANNAH       CLEAR     68  66  94 N7        30.06R
$$

TNZ008-025-027-028-033-062-065-066-200500-
NORTH MIDDLE TENNESSEE

CITY           SKY/WX    TMP DP  RH WIND       PRES   REMARKS
NASHVILLE      MOCLDY    75  59  57 NW7       30.02S
DICKSON        CLEAR     64  63  94 W7        30.03R
PORTLAND       CLEAR     68  66  94 S5        30.00F
CLARKSVILLE    FAIR      66  63  90 SE6       30.00F
SMYRNA         FAIR      74  62  66 SE8       30.00F
MURFREESBORO   CLEAR     75  64  69 S7        30.01F
COOKEVILLE     PTCLDY    70  66  88 CALM      30.07S
LIVINGSTON     CLEAR     73  63  68 SW5       30.06F
GALLATIN       MOCLDY    72  66  83 CALM      30.03F
CROSSVILLE     FAIR      67  64  90 W3        30.13S
$$

TNZ061-075-076-078-094-096-097-200500-
SOUTH MIDDLE TENNESSEE

CITY           SKY/WX    TMP DP  RH WIND       PRES   REMARKS
LEWISBURG      CLEAR     68  66  94 S8        30.03F
FAYETTEVILLE   CLEAR     73  66  78 CALM      30.09S
TULLAHOMA      CLEAR     72  66  83 CALM      30.08F
WINCHESTER     PTCLDY    70  66  88 SE3       30.09R
MCMINNVILLE    CLEAR     72  66  83 CALM      30.08F
COLUMBIA       CLEAR     70  63  78 SW7       30.02R
SHELBYVILLE    CLEAR     72  64  78 S8        30.03F
$$

TNZ017-018-042-046-047-200500-
NORTHEAST TENNESSEE

CITY           SKY/WX    TMP DP  RH WIND       PRES   REMARKS
TRI CITIES     TSTM      66  66 100 CALM      30.15S
ELIZABETHTON   HVY RAIN  66  64  94 S8        30.17R
GREENEVILLE    CLOUDY    66  66 100 SE6       30.14F FOG
$$

TNZ012-013-036-069-073-074-200500-
CENTRAL EAST TENNESSEE

CITY           SKY/WX    TMP DP  RH WIND       PRES   REMARKS
KNOXVILLE      FAIR      73  67  81 SW6       30.08R
OAK RIDGE      FAIR      73  70  90 CALM      30.09R
DOWNTOWN KNOXV CLEAR     68  68 100 CALM      30.08S
GATLINBURG     PTCLDY    73  66  78 CALM      30.09S
MORRISTOWN     MOCLDY    70  68  94 CALM      30.10R
JACKSBORO      CLEAR     68  66  94 CALM      30.13R
$$

TNZ083-085-099-200500-
SOUTHEAST TENNESSEE

CITY           SKY/WX    TMP DP  RH WIND       PRES   REMARKS
CHATTANOOGA    FAIR      75  66  73 CALM      30.09R
DAYTON         CLOUDY    72  70  94 CALM      30.07S
$$

SKY/WX REPORTED AS FAIR MEANS FEW OR NO CLOUDS BELOW
12 THOUSAND FEET.





USA.gov is the U.S. government's official web portal to all federal, state and local government web resources and services.